Regional Weather Roundup
Issued by NWS Bismarck, ND

Home | Current Version | Previous Version | Text Only | Print | Product List | Glossary On
Versions: 1 2 3 4 5 6 7 8 9 10 11 12 13 14 15 16 17 18 19 20 21 22 23 24 25 26 27 28 29 30 31 32 33 34 35 36 37 38 39 40 41 42 43 44 45 46 47 48 49 50
000
ASUS43 KBIS 190402
RWRBIS

NWR BROADCAST TEXT
NATIONAL WEATHER SERVICE BISMARCK ND
1100 PM CDT WED OCT 18 2017

NOTE: "FAIR" INDICATES FEW OR NO CLOUDS BELOW 12,000 FEET WITH NO
SIGNIFICANT WEATHER AND/OR OBSTRUCTIONS TO VISIBILITY.


CITY           SKY/WX    TMP DP  RH WIND       PRES   REMARKS
WILLISTON      CLOUDY    33  26  75 CALM      29.85F
MINOT          CLOUDY    42  24  49 SW8       29.87F
MINOT AFB      CLOUDY    34  22  59 W3        29.86F
BISMARCK       CLOUDY    41  25  53 CALM      29.94F
DICKINSON      CLOUDY    37  25  61 S9        29.89F
GARRISON         N/A     36  24  62 S3        29.90S
HETTINGER ARPT CLOUDY    43  25  49 SE5       29.94F
JAMESTOWN      CLOUDY    44  26  49 SW6       29.94F
CARRINGTON     FAIR      39  25  56 SW8       29.94F
HAZEN          FAIR      37  25  60 CALM      29.93F
LINTON           N/A     41  23  48 S9        29.97S
RUGBY            N/A     39  25  56 SW8       29.88S
STANLEY        FAIR      36  23  60 SW5       29.89F
TIOGA          FAIR      36  23  60 CALM      29.88S
WATFORD CITY   FAIR      37  25  60 SE3       29.86F
$$

CITY           SKY/WX    TMP DP  RH WIND       PRES   REMARKS
GRAND FORKS    CLOUDY    49  24  37 W10       29.88S
GRAND FORKS AF CLOUDY    50  23  34 W15G23    29.88R
DEVILS LAKE    CLOUDY    44  29  55 SW12      29.90S
FARGO          CLOUDY    45  26  47 SW12      29.94S
CANDO          FAIR      34  21  60 SW9       29.90S
CAVALIER       FAIR      50  19  29 W15       29.84R
GRAFTON        FAIR      48  27  43 W15       29.88S
GWINNER          N/A     39  30  70 CALM      29.98S
LANGDON        FAIR      41  21  45 W15       29.85S
ROLLA          FAIR      45  16  31 W13       29.86S
WALHALLA       FAIR     N/A N/A N/A W15G26    29.82R
$$

CITY           SKY/WX    TMP DP  RH WIND       PRES   REMARKS
ABERDEEN       CLOUDY    37  29  72 S7        30.01F
MOBRIDGE       CLOUDY    45  37  73 SE9       29.95F
BUFFALO          N/A     48  25  40 SE7       29.85F
RAPID CITY     CLOUDY    47  29  49 SE7       29.97F
GLASGOW        CLOUDY    46  29  51 SE13      29.77F
SIDNEY         CLOUDY    40  26  57 CALM      29.84F
WOLF POINT     PTCLDY    43  25  49 N5        29.81F
GLENDIVE       CLOUDY    47  26  44 S3        29.86F
MILES CITY     CLOUDY    49  31  49 S9        29.84F
BAKER          CLEAR     43  29  57 E8        29.89F
$$

CITY           SKY/WX    TMP DP  RH WIND       PRES   REMARKS
BILLINGS       PTCLDY    57  33  40 SW9       29.86F
GREAT FALLS    CLOUDY    57  31  37 SW20      29.73F
$$





USA.gov is the U.S. government's official web portal to all federal, state and local government web resources and services.